User: anonymous   Login
Location: Unspecified
(0.0000°N, 0.0000°E)
Time: 06:50:00
(UTC+00:00)
Language:

FORMOSAT 3B - Orbit

View from above orbital plane
View from above orbital plane
View from above satellite
View from above satellite

Ground track
Ground track

The orbit data is extracted from the following two-line orbital elements,

1 29048U 06011B   17087.94579421 +.00000065 +00000-0 +42033-4 0  9992
2 29048 071.9660 263.1497 0045602 246.7257 267.4276 14.28506957575789
Epoch (UTC): 28 March 2017 22:41:56
Eccentricity: 0.0045602
inclination: 71.9660°
perigee height: 764 km
apogee height: 829 km
right ascension of ascending node: 263.1497°
argument of perigee: 246.7257°
revolutions per day: 14.28506957
mean anomaly at epoch: 267.4276°
orbit number at epoch: 57578

The dashed part of the orbit path shows where the satellite is in the earth's shadow,  

DLR